| time (UTC) | temp F | wind direction | speed knots | gust knots | rain 1hr in | rain 24hr in | rain mn in | humidity % | barometer mb |
| 20260906124931 | 66 | 112 | 1.7 | 2.6 | 0.00 | 0.00 | 0.00 | 100 | 1022.9 |
| 20260906123930 | 66 | 93 | 1.7 | 3.5 | 0.00 | 0.00 | 0.00 | 100 | 1023.0 |
| 20260906121930 | 66 | 142 | 0.0 | 0.9 | 0.00 | 0.00 | 0.00 | 100 | 1022.6 |
| 20260906120929 | 66 | 45 | 0.0 | 0.0 | 0.00 | 0.00 | 0.00 | 99 | 1022.6 |
| 20260906115933 | 66 | 45 | 0.0 | 0.0 | 0.00 | 0.00 | 0.00 | 99 | 1022.3 |
| 20260906115030 | 66 | 315 | 0.0 | 0.0 | 0.00 | 0.00 | 0.00 | 100 | 1022.3 |
| 20260906114029 | 65 | 315 | 0.0 | 0.0 | 0.00 | 0.00 | 0.00 | 99 | 1022.1 |
| 20260906113128 | 65 | 315 | 0.0 | 0.0 | 0.00 | 0.00 | 0.00 | 99 | 1021.9 |
| 20260906112128 | 65 | 22 | 0.0 | 0.0 | 0.00 | 0.00 | 0.00 | 99 | 1021.9 |
| 20260906111130 | 65 | 22 | 0.0 | 0.0 | 0.00 | 0.00 | 0.00 | 99 | 1021.7 |
| 20260906110128 | 65 | 22 | 0.0 | 0.0 | 0.00 | 0.00 | 0.00 | 100 | 1021.7 |
| 20260906105129 | 65 | 22 | 0.0 | 0.0 | 0.00 | 0.00 | 0.00 | 100 | 1021.8 |
| 20260906104130 | 65 | 22 | 0.0 | 0.0 | 0.00 | 0.00 | 0.00 | 99 | 1021.8 |
| 20260906103230 | 65 | 22 | 0.0 | 0.0 | 0.00 | 0.00 | 0.00 | 100 | 1021.8 |
| 20260906102328 | 65 | 22 | 0.0 | 0.0 | 0.00 | 0.00 | 0.00 | 100 | 1021.7 |
| 20260906101330 | 66 | 22 | 0.0 | 0.0 | 0.00 | 0.00 | 0.00 | 99 | 1021.5 |
| 20260906100329 | 65 | 320 | 0.9 | 1.7 | 0.00 | 0.00 | 0.00 | 99 | 1021.2 |
| 20260906095328 | 65 | 315 | 0.0 | 0.0 | 0.00 | 0.00 | 0.00 | 100 | 1021.2 |
| 20260906094329 | 65 | 315 | 0.0 | 0.0 | 0.00 | 0.00 | 0.00 | 100 | 1021.1 |
| 20260906092330 | 64 | 315 | 0.0 | 0.0 | 0.00 | 0.00 | 0.00 | 100 | 1020.8 |
| 20260906090329 | 64 | 315 | 0.0 | 0.0 | 0.00 | 0.00 | 0.00 | 100 | 1021.0 |
| 20260906085329 | 64 | 315 | 0.0 | 0.0 | 0.00 | 0.00 | 0.00 | 100 | 1021.1 |
| 20260906084428 | 64 | 315 | 0.0 | 0.0 | 0.00 | 0.00 | 0.00 | 100 | 1021.0 |
| 20260906083428 | 64 | 315 | 0.0 | 0.0 | 0.00 | 0.00 | 0.00 | 100 | 1021.2 |
| 20260906082432 | 64 | 315 | 0.0 | 0.0 | 0.00 | 0.00 | 0.00 | 100 | 1021.2 |
| 20260906081529 | 64 | 315 | 0.0 | 0.0 | 0.00 | 0.00 | 0.00 | 100 | 1021.3 |
| 20260906080531 | 64 | 315 | 0.0 | 0.0 | 0.00 | 0.00 | 0.00 | 100 | 1021.0 |
| 20260906075628 | 64 | 315 | 0.0 | 0.0 | 0.00 | 0.00 | 0.00 | 100 | 1021.0 |
| 20260906074630 | 65 | 315 | 0.0 | 0.0 | 0.00 | 0.00 | 0.00 | 100 | 1021.3 |
| 20260906073628 | 65 | 315 | 0.0 | 0.0 | 0.00 | 0.00 | 0.00 | 100 | 1021.3 |
| 20260906072628 | 64 | 315 | 0.0 | 0.0 | 0.00 | 0.00 | 0.00 | 99 | 1021.3 |
| 20260906071644 | 64 | 315 | 0.0 | 0.0 | 0.00 | 0.00 | 0.00 | 99 | 1021.5 |
| 20260906070631 | 64 | 315 | 0.0 | 0.0 | 0.00 | 0.00 | 0.00 | 99 | 1021.5 |
| 20260906065630 | 64 | 315 | 0.0 | 0.0 | 0.00 | 0.00 | 0.00 | 98 | 1021.6 |
| 20260906064728 | 64 | 315 | 0.0 | 0.0 | 0.00 | 0.00 | 0.00 | 99 | 1021.7 |
| 20260906062828 | 64 | 315 | 0.0 | 0.0 | 0.00 | 0.00 | 0.00 | 99 | 1021.7 |
| 20260906061831 | 64 | 315 | 0.0 | 0.0 | 0.00 | 0.00 | 0.00 | 99 | 1021.7 |
| 20260906060830 | 64 | 315 | 0.0 | 0.0 | 0.00 | 0.00 | 0.00 | 99 | 1021.6 |
| 20260906055929 | 64 | 315 | 0.0 | 0.0 | 0.00 | 0.00 | 0.00 | 99 | 1021.6 |
| 20260906053930 | 65 | 315 | 0.0 | 0.0 | 0.00 | 0.00 | 0.00 | 99 | 1021.6 |
| 20260906052930 | 65 | 315 | 0.0 | 0.0 | 0.00 | 0.00 | 0.00 | 98 | 1021.6 |
| 20260906051928 | 65 | 315 | 0.0 | 0.9 | 0.00 | 0.00 | 0.00 | 99 | 1021.5 |
| 20260906050930 | 65 | 315 | 0.0 | 0.0 | 0.00 | 0.00 | 0.00 | 99 | 1021.4 |
| 20260906045929 | 65 | 315 | 0.0 | 0.0 | 0.00 | 0.00 | 0.00 | 99 | 1021.3 |
| 20260906044028 | 65 | 315 | 0.0 | 0.0 | 0.00 | 0.00 | 0.00 | 99 | 1021.3 |
| 20260906043030 | 66 | 315 | 0.0 | 0.0 | 0.00 | 0.00 | 0.00 | 98 | 1021.4 |
| 20260906042030 | 66 | 315 | 0.0 | 0.0 | 0.00 | 0.00 | 0.00 | 99 | 1021.5 |
| 20260906041029 | 67 | 315 | 0.0 | 0.0 | 0.00 | 0.00 | 0.00 | 98 | 1021.6 |
| 20260906040028 | 67 | 315 | 1.7 | 1.7 | 0.00 | 0.00 | 0.00 | 97 | 1021.5 |
| 20260906035029 | 67 | 315 | 0.0 | 0.0 | 0.00 | 0.00 | 0.00 | 97 | 1021.4 |
| 20260906034127 | 67 | 315 | 0.0 | 0.0 | 0.00 | 0.00 | 0.00 | 98 | 1021.2 |
| 20260906033144 | 67 | 315 | 0.0 | 0.0 | 0.00 | 0.00 | 0.00 | 98 | 1021.1 |
| 20260906032228 | 67 | 315 | 0.0 | 0.0 | 0.00 | 0.00 | 0.00 | 97 | 1020.9 |
| 20260906031229 | 67 | 315 | 0.0 | 0.0 | 0.00 | 0.00 | 0.00 | 98 | 1020.7 |
| 20260906030228 | 67 | 315 | 0.0 | 0.0 | 0.00 | 0.00 | 0.00 | 98 | 1020.6 |
| 20260906022247 | 67 | 315 | 0.0 | 0.0 | 0.00 | 0.00 | 0.00 | 96 | 1020.1 |
| 20260906021230 | 68 | 315 | 0.0 | 0.0 | 0.00 | 0.00 | 0.00 | 97 | 1020.1 |
| 20260906020327 | 67 | 315 | 0.0 | 0.9 | 0.00 | 0.00 | 0.00 | 95 | 1020.0 |
| 20260906015328 | 67 | 315 | 0.0 | 0.0 | 0.00 | 0.00 | 0.00 | 96 | 1019.8 |
| 20260906014346 | 68 | 315 | 0.0 | 0.0 | 0.00 | 0.00 | 0.00 | 94 | 1019.4 |
| 20260906013430 | 68 | 315 | 0.0 | 0.0 | 0.00 | 0.00 | 0.00 | 94 | 1019.2 |
| 20260906012429 | 68 | 315 | 0.0 | 0.0 | 0.00 | 0.00 | 0.00 | 94 | 1018.9 |
| 20260906011429 | 69 | 315 | 0.0 | 0.0 | 0.00 | 0.00 | 0.00 | 93 | 1018.8 |
| 20260906005530 | 70 | 315 | 0.0 | 1.7 | 0.00 | 0.00 | 0.00 | 93 | 1018.5 |
| 20260906004627 | 71 | 315 | 0.9 | 1.7 | 0.00 | 0.00 | 0.00 | 92 | 1018.5 |
| 20260906002630 | 72 | 315 | 1.7 | 1.7 | 0.00 | 0.00 | 0.00 | 90 | 1018.5 |
| 20260906001628 | 72 | 315 | 0.0 | 0.0 | 0.00 | 0.00 | 0.00 | 88 | 1018.3 |
| 20260905235527 | 74 | 67 | 0.0 | 0.0 | 0.00 | 0.00 | 0.00 | 86 | 1018.2 |
| 20260905233529 | 75 | 250 | 0.9 | 2.6 | 0.00 | 0.00 | 0.00 | 83 | 1018.3 |
| 20260905232529 | 76 | 247 | 0.0 | 0.9 | 0.00 | 0.00 | 0.00 | 79 | 1018.6 |
| 20260905231627 | 76 | 102 | 2.6 | 3.5 | 0.00 | 0.00 | 0.00 | 78 | 1018.5 |
| 20260905230628 | 76 | 87 | 2.6 | 6.1 | 0.00 | 0.00 | 0.00 | 78 | 1018.6 |
| 20260905225728 | 76 | 106 | 2.6 | 5.2 | 0.00 | 0.00 | 0.00 | 78 | 1018.6 |
| 20260905224729 | 76 | 105 | 4.3 | 7.0 | 0.00 | 0.00 | 0.00 | 78 | 1018.6 |
| 20260905223730 | 77 | 99 | 3.5 | 5.2 | 0.00 | 0.00 | 0.00 | 77 | 1018.8 |
| 20260905222729 | 77 | 99 | 5.2 | 7.8 | 0.00 | 0.00 | 0.00 | 78 | 1018.8 |
| 20260905221744 | 77 | 106 | 4.3 | 7.0 | 0.00 | 0.00 | 0.00 | 77 | 1018.6 |
| 20260905220729 | 77 | 99 | 3.5 | 6.1 | 0.00 | 0.00 | 0.00 | 77 | 1018.6 |
| 20260905215730 | 77 | 105 | 3.5 | 6.1 | 0.00 | 0.00 | 0.00 | 78 | 1018.7 |
| 20260905214828 | 77 | 101 | 5.2 | 8.7 | 0.00 | 0.00 | 0.00 | 78 | 1018.7 |
| 20260905213928 | 77 | 107 | 3.5 | 6.1 | 0.00 | 0.00 | 0.00 | 78 | 1019.0 |
| 20260905212929 | 77 | 85 | 3.5 | 6.1 | 0.00 | 0.00 | 0.00 | 78 | 1019.1 |
| 20260905211929 | 77 | 97 | 4.3 | 6.1 | 0.00 | 0.00 | 0.00 | 76 | 1019.2 |
| 20260905210946 | 79 | 124 | 2.6 | 6.1 | 0.00 | 0.00 | 0.00 | 76 | 1019.2 |
| 20260905205944 | 79 | 108 | 5.2 | 7.0 | 0.00 | 0.00 | 0.00 | 73 | 1019.1 |
| 20260905204029 | 81 | 95 | 3.5 | 6.1 | 0.00 | 0.00 | 0.00 | 73 | 1019.0 |
| 20260905203127 | 81 | 105 | 3.5 | 6.1 | 0.00 | 0.00 | 0.00 | 73 | 1019.0 |
| 20260905201127 | 80 | 101 | 1.7 | 2.6 | 0.00 | 0.00 | 0.00 | 75 | 1019.1 |
| 20260905200129 | 80 | 90 | 1.7 | 3.5 | 0.00 | 0.00 | 0.00 | 75 | 1019.3 |
| 20260905194128 | 81 | 126 | 3.5 | 5.2 | 0.00 | 0.00 | 0.00 | 72 | 1019.2 |
| 20260905193129 | 80 | 105 | 3.5 | 5.2 | 0.00 | 0.00 | 0.00 | 73 | 1019.2 |
| 20260905191227 | 82 | 134 | 1.7 | 3.5 | 0.00 | 0.00 | 0.00 | 72 | 1019.4 |
| 20260905190227 | 80 | 135 | 0.9 | 1.7 | 0.00 | 0.00 | 0.00 | 74 | 1019.5 |
| 20260905185228 | 81 | 112 | 1.7 | 3.5 | 0.00 | 0.00 | 0.00 | 72 | 1019.5 |
| 20260905183227 | 81 | 202 | 0.9 | 2.6 | 0.00 | 0.00 | 0.00 | 74 | 1019.3 |
| 20260905182228 | 80 | 137 | 2.6 | 4.3 | 0.00 | 0.00 | 0.00 | 77 | 1019.4 |
| 20260905180329 | 78 | 91 | 3.5 | 5.2 | 0.00 | 0.00 | 0.00 | 78 | 1019.5 |
| 20260905175328 | 78 | 142 | 1.7 | 3.5 | 0.00 | 0.00 | 0.00 | 78 | 1019.6 |
| 20260905173329 | 78 | 112 | 0.0 | 0.9 | 0.00 | 0.00 | 0.00 | 81 | 1019.8 |
| 20260905172328 | 78 | 135 | 2.6 | 3.5 | 0.00 | 0.00 | 0.00 | 81 | 1019.9 |
| 20260905171327 | 77 | 116 | 1.7 | 4.3 | 0.00 | 0.00 | 0.00 | 83 | 1019.9 |
| 20260905170344 | 76 | 157 | 1.7 | 2.6 | 0.00 | 0.00 | 0.00 | 86 | 1019.9 |
| 20260905165327 | 75 | 113 | 0.9 | 2.6 | 0.00 | 0.00 | 0.00 | 88 | 1020.3 |
| 20260905164327 | 75 | 119 | 1.7 | 2.6 | 0.00 | 0.00 | 0.00 | 87 | 1020.1 |
| 20260905162329 | 75 | 150 | 0.0 | 1.7 | 0.00 | 0.00 | 0.00 | 88 | 1020.2 |
| 20260905161426 | 75 | 112 | 1.7 | 2.6 | 0.00 | 0.00 | 0.00 | 89 | 1020.0 |
| 20260905155442 | 74 | 121 | 2.6 | 3.5 | 0.00 | 0.00 | 0.00 | 91 | 1020.1 |
| 20260905154528 | 74 | 102 | 2.6 | 3.5 | 0.00 | 0.00 | 0.00 | 91 | 1020.0 |
| 20260905153528 | 74 | 138 | 1.7 | 3.5 | 0.00 | 0.00 | 0.00 | 91 | 1020.0 |
| 20260905152627 | 73 | 7 | 0.0 | 1.7 | 0.00 | 0.00 | 0.00 | 93 | 1019.9 |
| 20260905151629 | 73 | 94 | 2.6 | 3.5 | 0.00 | 0.00 | 0.00 | 92 | 1019.9 |
| 20260905145629 | 73 | 95 | 3.5 | 5.2 | 0.00 | 0.00 | 0.00 | 92 | 1019.6 |
| 20260905143727 | 72 | 130 | 0.9 | 1.7 | 0.00 | 0.00 | 0.00 | 92 | 1019.7 |
| 20260905142730 | 72 | 110 | 2.6 | 4.3 | 0.00 | 0.00 | 0.00 | 93 | 1019.6 |
| 20260905141728 | 72 | 99 | 0.9 | 2.6 | 0.00 | 0.00 | 0.00 | 93 | 1019.4 |
| 20260905140742 | 72 | 144 | 1.7 | 3.5 | 0.00 | 0.00 | 0.00 | 94 | 1019.3 |
| 20260905135827 | 72 | 116 | 1.7 | 5.2 | 0.00 | 0.00 | 0.00 | 94 | 1019.1 |
| 20260905134826 | 72 | 73 | 1.7 | 3.5 | 0.00 | 0.00 | 0.00 | 94 | 1019.2 |
| 20260905133827 | 72 | 84 | 3.5 | 5.2 | 0.00 | 0.00 | 0.00 | 95 | 1019.0 |
| 20260905132926 | 72 | 120 | 1.7 | 3.5 | 0.00 | 0.00 | 0.00 | 94 | 1018.7 |
| 20260905131942 | 72 | 129 | 0.0 | 4.3 | 0.00 | 0.00 | 0.00 | 96 | 1018.7 |
| 20260905130943 | 72 | 112 | 2.6 | 4.3 | 0.00 | 0.00 | 0.00 | 96 | 1018.4 |